Tracking 17921 objects as of 18-January-2017
HD Live streaming from Space Station
objects crossing your sky now

ARIANE 44L R/B

Track ARIANE 44L R/B now!


NORAD ID: 26696
Int'l Code: 2001-005C
Perigee: 322.9 km
Apogee: 32,234.8 km
Inclination: 7.2 °
Period: 565.4 minutes
Semi major axis: 22649 km
RCS: 23.3181 m2 (large)
Launch date: February 7, 2001
Source: France (FR)
Launch site: FRENCH GUIANA (FRGUI)

Note: This is a ROCKET BODY
Your satellite tracking list
Your tracking list is empty





NASA's NSSDC Master Catalog

Two Line Element Set (TLE):
1 26696U 01005C   17017.93834530  .00000032  00000-0  32432-3 0  9998
2 26696   7.1664 287.7964 7044604 126.8187 320.3754  2.54685683139448
Source of the keplerian elements: AFSPC